Location: Saratoga Springs
(43.0831°N, 73.7850°W)
Time: 16:43:18
(UTC-04:00)

Tiros 1 - Pass Details

Date: 21 April 2024
Orbit: 624 x 657 km, 48.4° (Epoch: 28 May)

Event Time Altitude Azimuth Distance (km) Brightness Sun altitude
Rises 06:28:58 0° 294° (WNW) 2,908 10.0 3.8°
Reaches altitude 10° 06:31:21 10° 288° (WNW) 1,996 9.2 4.2°
Maximum altitude 06:35:44 46° 215° (SW) 837 7.5 5.0°
Drops below altitude 10° 06:40:06 10° 143° (SE) 1,986 10.1 5.8°
Sets 06:42:28 0° 137° (SE) 2,892 11.0 6.2°
